�N����,����,�~����,�C��,���x,�C��,����,���ϕ���,�ő�u�ԕ���,�ő厞����,���˗�,�I�_���x,�n�����x,�ő啗���N��,DTYPE
"22/03/28","00:10",0.0,10.0,84.1,1010.4,311.5,3.4,6.3,337.7,0.00,7.5,13.0,"00:08:24",1
"22/03/28","00:20",0.0,10.2,82.8,1010.9,330.1,3.9,5.9,333.8,0.00,7.4,12.7,"00:12:40",1
"22/03/28","00:30",0.0,10.4,81.8,1011.2,331.7,3.4,4.8,334.4,0.00,7.5,12.8,"00:26:16",1
"22/03/28","00:40",0.0,10.2,80.5,1010.9,333.2,2.5,4.5,334.5,0.00,7.0,12.9,"00:30:32",1
"22/03/28","00:50",0.0,9.7,80.6,1010.9,335.9,2.0,3.5,313.4,0.00,6.6,12.7,"00:49:52",1
"22/03/28","01:00",0.0,9.9,80.9,1010.4,324.4,3.1,5.0,308.4,0.00,6.8,12.6,"00:58:32",1
"22/03/28","01:10",0.0,10.1,80.6,1010.9,314.5,2.7,4.7,353.3,0.00,7.0,12.8,"01:01:44",1
"22/03/28","01:20",0.0,9.9,80.6,1010.9,295.7,3.0,4.8,338.3,0.00,6.8,12.5,"01:14:08",1
"22/03/28","01:30",0.0,9.9,80.5,1010.9,322.3,3.5,4.8,317.7,0.00,6.7,12.7,"01:22:48",1
"22/03/28","01:40",0.0,9.3,81.0,1011.2,313.3,2.8,3.6,310.7,0.00,6.3,12.5,"01:33:12",1
"22/03/28","01:50",0.0,8.8,82.2,1011.4,296.2,2.5,3.5,263.8,0.00,6.0,12.5,"01:43:28",1
"22/03/28","02:00",0.0,8.7,83.2,1011.6,322.0,2.1,3.1,308.8,0.00,6.1,12.5,"01:51:12",1
"22/03/28","02:10",0.0,8.6,84.0,1011.4,327.9,1.3,2.0,319.2,0.00,6.1,12.4,"02:04:40",1
"22/03/28","02:20",0.0,8.5,84.8,1011.4,330.2,1.8,2.9,327.6,0.00,6.1,12.3,"02:18:16",1
"22/03/28","02:30",0.0,8.5,85.4,1011.6,326.4,1.7,2.2,333.9,0.00,6.2,12.3,"02:20:48",1
"22/03/28","02:40",0.0,8.4,85.8,1011.6,320.5,1.3,2.0,333.9,0.00,6.2,12.2,"02:36:48",1
"22/03/28","02:50",0.0,8.3,86.2,1011.9,307.2,1.0,1.9,333.4,0.00,6.2,12.2,"02:40:24",1
"22/03/28","03:00",0.0,8.7,86.7,1011.6,329.3,2.3,4.2,334.7,0.00,6.6,12.4,"02:58:32",1
"22/03/28","03:10",0.0,9.1,86.3,1011.9,321.9,3.0,4.3,306.7,0.00,7.0,12.4,"03:09:04",1
"22/03/28","03:20",0.0,9.0,85.9,1012.1,298.5,2.2,4.4,302.7,0.00,6.8,12.1,"03:12:24",1
"22/03/28","03:30",0.0,8.8,86.0,1012.1,261.7,1.3,2.7,255.8,0.00,6.6,12.2,"03:23:04",1
"22/03/28","03:40",0.0,8.8,86.0,1012.3,281.7,1.2,2.4,312.5,0.00,6.6,12.0,"03:36:08",1
"22/03/28","03:50",0.0,8.4,86.2,1012.3,303.3,1.5,2.6,308.5,0.00,6.3,12.2,"03:45:04",1
"22/03/28","04:00",0.0,8.5,86.2,1012.6,294.1,2.1,4.3,310.8,0.00,6.4,12.1,"03:57:04",1
"22/03/28","04:10",0.0,10.2,82.5,1012.8,294.6,3.0,5.4,323.0,0.00,7.4,12.1,"04:01:44",1
"22/03/28","04:20",0.0,10.6,78.2,1013.3,305.3,3.5,6.7,312.4,0.00,7.0,12.0,"04:16:24",1
"22/03/28","04:30",0.0,10.6,75.2,1013.8,299.0,3.6,6.0,257.8,0.00,6.4,11.9,"04:29:30",1
"22/03/28","04:40",0.0,11.0,73.2,1013.8,322.2,3.9,7.4,320.3,0.00,6.4,11.9,"04:36:18",1
"22/03/28","04:50",0.0,10.8,73.0,1014.5,341.9,3.2,5.4,346.3,0.00,6.2,12.0,"04:48:34",1
"22/03/28","05:00",0.0,10.6,74.4,1014.9,321.4,3.9,8.0,347.0,0.00,6.3,11.8,"04:52:16",1
"22/03/28","05:10",0.0,10.4,74.0,1014.2,323.0,4.5,8.1,291.6,0.00,6.0,11.9,"05:03:20",1
"22/03/28","05:20",0.0,10.3,72.3,1014.9,298.4,4.4,7.2,342.3,0.00,5.6,11.9,"05:13:32",1
"22/03/28","05:30",0.0,10.2,71.1,1014.9,327.4,4.1,6.4,320.5,0.00,5.2,11.8,"05:20:08",1
"22/03/28","05:40",0.0,10.2,70.2,1014.9,316.0,4.7,8.5,325.6,0.00,5.1,11.7,"05:32:16",1
"22/03/28","05:50",0.0,10.2,69.4,1015.4,322.1,4.5,8.7,327.7,0.00,4.9,11.7,"05:43:12",1
"22/03/28","06:00",0.0,10.1,69.4,1015.4,320.3,2.8,6.3,338.6,0.00,4.8,11.7,"05:52:16",1
"22/03/28","06:10",0.0,10.0,69.1,1015.6,312.0,2.8,6.6,314.3,0.00,4.6,11.8,"06:02:24",1
"22/03/28","06:20",0.0,9.9,68.9,1015.9,340.9,2.2,4.4,333.3,0.00,4.5,11.7,"06:16:32",1
"22/03/28","06:30",0.0,10.0,68.9,1015.9,307.2,3.4,7.4,314.0,0.00,4.6,11.6,"06:29:36",1
"22/03/28","06:40",0.0,10.0,68.4,1016.4,330.7,3.0,6.0,313.4,0.00,4.5,11.6,"06:31:12",1
"22/03/28","06:50",0.0,9.8,67.2,1016.6,342.2,3.4,6.3,329.2,0.00,4.1,11.5,"06:49:32",1
"22/03/28","07:00",0.0,9.8,65.8,1017.1,341.0,3.4,5.7,329.2,0.02,3.8,11.6,"06:56:12",1
"22/03/28","07:10",0.0,9.7,62.8,1017.1,317.0,3.6,6.3,317.2,0.03,3.0,11.4,"07:07:36",1
"22/03/28","07:20",0.0,9.8,61.9,1017.5,340.9,2.5,4.9,302.5,0.03,2.9,11.6,"07:18:14",1
"22/03/28","07:30",0.0,9.9,60.4,1017.5,336.5,3.2,4.9,313.9,0.06,2.6,11.6,"07:20:08",1
"22/03/28","07:40",0.0,9.8,58.5,1018.0,346.4,3.5,9.8,333.8,0.06,2.1,11.6,"07:38:12",1
"22/03/28","07:50",0.0,10.1,58.2,1018.2,339.6,3.6,8.0,334.1,0.10,2.3,11.5,"07:48:08",1
"22/03/28","08:00",0.0,10.2,56.2,1018.0,332.0,4.1,7.4,311.5,0.15,1.9,11.4,"07:57:52",1
"22/03/28","08:10",0.0,10.8,53.8,1018.2,339.6,3.5,9.4,341.6,0.21,1.9,11.4,"08:01:36",1
"22/03/28","08:20",0.0,10.8,52.3,1018.5,335.0,4.1,7.1,346.6,0.20,1.5,11.5,"08:16:32",1
"22/03/28","08:30",0.0,10.8,51.4,1018.7,335.4,4.7,10.5,329.8,0.22,1.2,11.5,"08:26:50",1
"22/03/28","08:40",0.0,11.2,51.1,1019.0,335.7,3.6,9.1,337.0,0.26,1.5,11.3,"08:30:34",1
"22/03/28","08:50",0.0,11.4,51.5,1019.0,341.7,3.4,7.2,347.0,0.27,1.8,11.4,"08:42:32",1
"22/03/28","09:00",0.0,11.5,50.5,1018.7,333.6,3.7,7.3,332.5,0.32,1.6,11.5,"08:58:40",1
"22/03/28","09:10",0.0,11.9,50.7,1018.7,338.6,3.2,5.7,301.7,0.34,2.0,11.3,"09:00:24",1
"22/03/28","09:20",0.0,11.8,50.0,1019.0,343.3,2.8,8.0,336.6,0.36,1.8,11.4,"09:17:36",1
"22/03/28","09:30",0.0,11.7,52.2,1018.7,348.5,4.1,8.0,347.8,0.38,2.3,11.5,"09:21:12",1
"22/03/28","09:40",0.0,12.2,51.6,1019.4,338.9,3.0,6.8,8.1,0.40,2.6,11.4,"09:33:28",1
"22/03/28","09:50",0.0,12.2,52.6,1019.4,342.9,3.1,6.5,346.1,0.43,2.8,11.5,"09:49:28",1
"22/03/28","10:00",0.0,12.4,54.5,1019.4,353.5,3.2,7.2,355.2,0.47,3.5,11.5,"09:53:04",1
"22/03/28","10:10",0.0,11.9,55.1,1019.9,334.7,5.2,8.5,348.7,0.40,3.2,11.6,"10:09:20",1
"22/03/28","10:20",0.0,12.2,54.3,1019.9,336.8,3.6,6.4,340.7,0.43,3.3,11.6,"10:10:08",1
"22/03/28","10:30",0.0,12.5,50.9,1019.4,335.2,3.9,7.3,334.6,0.49,2.7,11.6,"10:28:32",1
"22/03/28","10:40",0.0,12.6,50.1,1019.7,341.7,4.0,7.4,0.6,0.52,2.5,11.7,"10:36:48",1
"22/03/28","10:50",0.0,12.6,48.4,1019.7,335.7,4.6,10.0,328.8,0.54,2.0,11.7,"10:41:46",1
"22/03/28","11:00",0.0,12.6,47.6,1020.1,341.0,4.6,8.6,345.8,0.52,1.8,11.7,"10:57:44",1
"22/03/28","11:10",0.0,12.7,49.6,1019.9,347.3,4.6,9.3,342.4,0.56,2.5,11.8,"11:01:36",1
"22/03/28","11:20",0.0,12.9,49.2,1019.4,354.5,4.0,9.5,344.6,0.58,2.5,11.8,"11:14:48",1
"22/03/28","11:30",0.0,13.0,48.8,1019.0,336.9,4.2,8.7,341.1,0.56,2.5,11.7,"11:28:48",1
"22/03/28","11:40",0.0,12.9,48.9,1019.2,349.6,4.5,9.6,339.6,0.58,2.5,12.0,"11:39:46",1
"22/03/28","11:50",0.0,12.6,49.9,1019.4,344.2,5.5,11.4,335.4,0.56,2.5,12.1,"11:47:28",1
"22/03/28","12:00",0.0,12.9,49.4,1019.0,354.6,4.1,7.7,346.3,0.49,2.6,11.9,"11:59:16",1
"22/03/28","12:10",0.0,12.8,49.4,1019.4,336.5,5.1,9.8,333.8,0.50,2.5,12.1,"12:04:08",1
"22/03/28","12:20",0.0,12.8,48.5,1019.0,342.1,5.2,8.8,347.0,0.52,2.3,12.0,"12:10:08",1
"22/03/28","12:30",0.0,12.9,47.4,1019.4,323.0,5.1,9.5,336.7,0.53,2.0,12.2,"12:25:52",1
"22/03/28","12:40",0.0,13.2,48.6,1019.0,325.2,4.5,7.9,312.3,0.50,2.7,11.9,"12:30:24",1
"22/03/28","12:50",0.0,13.2,46.7,1019.2,351.5,3.7,7.4,338.0,0.51,2.1,12.1,"12:45:52",1
"22/03/28","13:00",0.0,12.9,47.6,1018.7,323.4,4.9,8.8,330.0,0.39,2.1,12.2,"12:53:36",1
"22/03/28","13:10",0.0,12.6,47.1,1019.2,356.1,3.4,7.8,325.9,0.34,1.7,12.2,"13:00:08",1
"22/03/28","13:20",0.0,12.5,47.7,1019.0,354.2,3.7,7.2,343.6,0.35,1.7,11.9,"13:16:00",1
"22/03/28","13:30",0.0,12.8,48.8,1019.0,341.6,2.7,5.2,343.4,0.34,2.3,12.3,"13:28:40",1
"22/03/28","13:40",0.0,12.0,45.9,1019.2,328.3,5.2,11.0,328.8,0.32,0.8,12.4,"13:39:20",1
"22/03/28","13:50",0.0,12.1,45.7,1018.7,334.0,5.2,10.3,321.5,0.29,0.8,12.4,"13:40:02",1
"22/03/28","14:00",0.0,12.1,47.7,1019.2,319.6,5.4,9.6,337.4,0.30,1.4,12.5,"13:51:04",1
"22/03/28","14:10",0.0,12.5,47.9,1019.0,336.8,3.5,6.7,343.2,0.31,1.8,12.4,"14:07:12",1
"22/03/28","14:20",0.0,12.2,45.1,1019.0,326.0,4.9,10.3,309.2,0.35,0.7,12.6,"14:14:10",1
"22/03/28","14:30",0.0,12.1,45.2,1019.0,323.8,5.2,9.0,310.7,0.33,0.6,12.5,"14:24:18",1
"22/03/28","14:40",0.0,12.1,44.9,1019.2,336.2,5.0,9.8,332.8,0.35,0.5,12.5,"14:35:20",1
"22/03/28","14:50",0.0,11.9,46.8,1019.2,314.6,5.5,10.9,333.0,0.24,0.9,12.7,"14:42:00",1
"22/03/28","15:00",0.0,11.9,48.0,1018.7,331.7,3.6,5.5,335.5,0.19,1.3,12.6,"14:50:40",1
"22/03/28","15:10",0.0,11.9,47.2,1019.4,332.1,3.4,6.4,325.6,0.23,1.1,12.7,"15:06:40",1
"22/03/28","15:20",0.0,12.5,45.1,1019.4,343.7,2.6,5.0,327.9,0.33,1.0,12.8,"15:12:08",1
"22/03/28","15:30",0.0,12.3,45.0,1019.2,325.3,2.6,5.7,342.2,0.22,0.8,12.6,"15:22:56",1
"22/03/28","15:40",0.0,11.9,44.3,1019.4,351.1,2.8,7.4,335.9,0.20,0.2,12.5,"15:31:12",1
"22/03/28","15:50",0.0,12.0,43.3,1019.4,8.5,2.6,5.8,344.8,0.24,0.0,12.6,"15:43:52",1
"22/03/28","16:00",0.0,11.6,46.5,1019.4,353.1,2.8,6.4,327.8,0.17,0.6,12.5,"15:56:32",1
"22/03/28","16:10",0.0,11.3,47.2,1019.7,335.7,4.1,8.2,334.0,0.17,0.5,12.7,"16:05:56",1
"22/03/28","16:20",0.0,11.2,46.4,1019.2,333.8,4.0,7.9,352.2,0.16,0.2,12.7,"16:12:48",1
"22/03/28","16:30",0.0,11.2,46.8,1019.4,330.1,4.6,7.5,333.8,0.15,0.3,12.6,"16:24:56",1
"22/03/28","16:40",0.0,11.3,46.6,1019.9,330.5,4.6,7.8,344.8,0.18,0.3,12.7,"16:37:52",1
"22/03/28","16:50",0.0,11.3,46.6,1019.7,342.4,3.9,7.3,338.2,0.15,0.3,12.7,"16:44:40",1
"22/03/28","17:00",0.0,11.0,47.5,1019.7,332.6,3.9,5.7,324.1,0.10,0.3,12.7,"16:51:20",1
"22/03/28","17:10",0.0,10.9,49.1,1019.7,334.1,3.6,6.8,341.0,0.09,0.7,12.7,"17:05:20",1
"22/03/28","17:20",0.0,11.0,48.5,1019.7,342.5,2.7,4.5,336.4,0.08,0.6,12.7,"17:17:04",1
"22/03/28","17:30",0.0,10.3,48.7,1020.6,334.1,3.9,7.1,350.7,0.04,0.0,12.8,"17:25:36",1
"22/03/28","17:40",0.0,10.1,50.2,1020.4,337.5,3.6,6.3,339.2,0.03,0.3,12.6,"17:37:52",1
"22/03/28","17:50",0.0,10.1,50.4,1020.6,337.4,3.9,5.9,337.6,0.05,0.3,12.6,"17:40:08",1
"22/03/28","18:00",0.0,9.9,50.5,1020.8,338.8,2.6,5.1,348.4,0.02,0.1,12.5,"17:52:24",1
"22/03/28","18:10",0.0,9.8,49.8,1020.4,331.9,2.2,4.7,314.4,0.02,-0.1,12.6,"18:08:56",1
"22/03/28","18:20",0.0,9.6,51.5,1020.8,329.9,2.8,5.0,334.2,0.00,0.1,12.4,"18:19:36",1
"22/03/28","18:30",0.0,9.3,52.0,1021.3,343.2,2.3,5.2,323.0,0.00,0.0,12.5,"18:20:16",1
"22/03/28","18:40",0.0,9.2,51.5,1021.3,351.7,2.2,4.4,7.1,0.00,-0.2,12.6,"18:36:48",1
"22/03/28","18:50",0.0,9.0,52.7,1022.0,332.0,2.5,3.9,327.6,0.00,-0.1,12.5,"18:49:12",1
"22/03/28","19:00",0.0,8.7,53.7,1021.5,324.7,3.6,5.9,309.9,0.00,-0.1,12.4,"18:52:48",1
"22/03/28","19:10",0.0,8.5,54.9,1022.0,323.8,3.0,5.1,325.7,0.00,0.0,12.4,"19:06:32",1
"22/03/28","19:20",0.0,8.4,54.9,1021.8,307.9,2.7,4.2,292.2,0.00,-0.1,12.2,"19:19:44",1
"22/03/28","19:30",0.0,8.4,55.3,1021.8,306.3,3.1,6.3,335.6,0.00,0.0,12.3,"19:29:52",1
"22/03/28","19:40",0.0,8.3,55.7,1022.0,304.5,3.0,4.9,312.3,0.00,0.0,12.2,"19:30:32",1
"22/03/28","19:50",0.0,8.3,55.6,1021.8,318.6,3.6,5.1,342.7,0.00,0.0,12.3,"19:40:32",1
"22/03/28","20:00",0.0,8.3,55.7,1022.0,322.2,4.0,5.0,325.0,0.00,0.0,12.2,"19:52:40",1
"22/03/28","20:10",0.0,8.2,56.4,1022.0,319.7,3.2,4.8,316.2,0.00,0.1,12.1,"20:02:32",1
"22/03/28","20:20",0.0,8.1,57.0,1022.5,330.8,3.9,5.9,340.3,0.00,0.1,12.3,"20:14:48",1
"22/03/28","20:30",0.0,8.1,57.9,1022.0,313.4,4.0,5.9,330.9,0.00,0.4,12.1,"20:27:44",1
"22/03/28","20:40",0.0,8.0,59.1,1022.3,325.5,3.9,5.4,309.5,0.00,0.5,12.1,"20:32:16",1
"22/03/28","20:50",0.0,7.9,60.1,1022.5,321.6,3.5,5.4,322.3,0.00,0.7,12.2,"20:49:04",1
"22/03/28","21:00",0.0,7.9,60.5,1022.3,297.7,2.7,4.4,329.6,0.00,0.8,12.0,"20:50:48",1
"22/03/28","21:10",0.0,7.9,61.1,1022.5,320.2,2.7,4.1,311.9,0.00,0.9,11.9,"21:08:56",1
"22/03/28","21:20",0.0,7.8,61.8,1022.3,328.2,2.6,4.9,333.2,0.00,1.0,12.1,"21:15:12",1
"22/03/28","21:30",0.0,7.8,62.3,1022.7,325.6,2.1,3.3,353.2,0.00,1.1,11.9,"21:29:04",1
"22/03/28","21:40",0.0,7.7,63.2,1022.3,314.2,2.6,3.7,318.0,0.00,1.2,11.9,"21:30:08",1
"22/03/28","21:50",0.0,7.8,62.9,1022.5,309.2,3.0,4.5,311.1,0.00,1.2,11.7,"21:42:24",1
"22/03/28","22:00",0.0,7.8,62.6,1022.5,312.1,4.0,5.7,311.0,0.00,1.2,11.9,"21:56:24",1
"22/03/28","22:10",0.0,7.8,62.8,1022.3,321.9,3.5,4.8,337.1,0.00,1.2,11.7,"22:06:48",1
"22/03/28","22:20",0.0,7.8,63.0,1022.5,304.0,3.1,4.5,310.6,0.00,1.2,11.8,"22:18:00",1
"22/03/28","22:30",0.0,7.8,63.5,1023.2,319.5,3.7,6.5,341.1,0.00,1.4,11.7,"22:23:36",1
"22/03/28","22:40",0.0,7.7,64.0,1023.4,324.9,3.2,5.1,308.9,0.00,1.4,11.6,"22:33:12",1
"22/03/28","22:50",0.0,7.6,64.4,1023.0,321.1,3.1,4.2,309.0,0.00,1.4,11.8,"22:45:52",1
"22/03/28","23:00",0.0,7.5,64.9,1023.0,323.1,2.2,2.9,346.9,0.00,1.4,11.7,"22:50:32",1
"22/03/28","23:10",0.0,7.3,65.6,1022.7,311.7,1.8,2.9,313.6,0.00,1.3,11.7,"23:00:02",1
"22/03/28","23:20",0.0,7.4,66.1,1022.7,283.2,2.1,2.9,319.9,0.00,1.5,11.7,"23:10:48",1
"22/03/28","23:30",0.0,7.4,66.3,1023.0,300.1,2.2,3.6,325.2,0.00,1.6,11.6,"23:21:52",1
"22/03/28","23:40",0.0,7.3,67.1,1023.0,319.4,1.6,3.2,314.4,0.00,1.6,11.6,"23:33:20",1
"22/03/28","23:50",0.0,7.2,68.3,1022.7,320.5,1.3,2.8,335.2,0.00,1.8,11.7,"23:49:36",1
"22/03/28","24:00",0.0,6.8,69.8,1022.7,303.6,1.7,2.8,325.8,0.00,1.7,11.4,"23:53:12",1
